カタログに戻る

R5-S2

運用中科学SSO
NORAD 60207·PAYLOAD·🇺🇸 United States

打ち上げ Jul 4, 2024 から Vandenberg Space Force Base

Loading…

次のパス (今後24時間)

TLE

最新Source: Space-Track

元期: Sep 14, 2026, 13:06 UTC

1 60207U 24125E   26257.54638218  .00014789  00000-0  28766-3 0  9999
2 60207  97.2249 109.2750 0012828 262.2598  97.7196 15.47599940122994

AllMySatでR5-S2をリアルタイム追跡

Download on the App Store